N9WFD Weather Reports


Display with metric or nautical units.
time (UTC)temp
F
wind
direction
speed
MPH
gust
MPH
rain 1hr
in
rain 24hr
in
rain mn
in
humidity
%
barometer
mb
20260901071518 74 312 0.0 0.0 0.00 0.00 0.00 90 1011.8
20260901070017 74 312 0.0 0.0 0.00 0.00 0.00 89 1011.8
20260901064503 74 312 0.0 0.0 0.00 0.00 0.00 89 1011.8
20260901063003 75 312 0.0 0.0 0.00 0.00 0.00 89 1011.8
20260901061502 76 312 0.0 0.0 0.00 0.00 0.00 88 1011.8
20260901060001 76 312 0.0 0.0 0.00 0.00 0.00 88 1011.9
20260901054532 76 312 0.0 0.0 0.00 0.00 0.00 88 1011.8
20260901053049 77 312 0.0 2.0 0.00 0.00 0.00 87 1011.7
20260901051529 77 312 0.0 2.0 0.00 0.00 0.00 87 1011.7
20260901050027 77 312 0.0 3.0 0.00 0.00 0.00 87 1011.9
20260901044526 77 312 0.0 2.0 0.00 0.00 0.00 87 1011.9
20260901043028 77 312 0.0 2.0 0.00 0.00 0.00 88 1011.9
20260901041525 77 312 1.0 3.0 0.00 0.00 0.00 88 1011.9
20260901040021 78 312 0.0 2.0 0.00 0.00 0.00 88 1011.9
20260901034525 78 310 0.0 2.0 0.00 0.00 0.00 87 1012.0
20260901033023 78 310 0.0 2.0 0.00 0.00 0.00 87 1012.1
20260901031523 78 310 1.0 2.0 0.00 0.00 0.00 88 1012.1
20260901030049 78 310 2.0 3.0 0.00 0.00 0.00 88 1012.1
20260901024553 78 310 0.0 1.0 0.00 0.00 0.00 87 1012.2
20260901023059 79 310 0.0 1.0 0.00 0.00 0.00 87 1012.1
20260901021553 79 310 0.0 0.0 0.00 0.00 0.00 86 1012.3
20260901020047 79 310 0.0 3.0 0.00 0.00 0.00 86 1012.2
20260901014552 79 310 2.0 6.0 0.00 0.00 0.00 85 1012.0
20260901013043 80 310 0.0 3.0 0.00 0.00 0.00 85 1012.1
20260901011543 80 310 2.0 5.0 0.00 0.00 0.00 84 1011.8
20260901010042 80 294 1.0 4.0 0.00 0.00 0.00 84 1011.7
20260901004543 80 327 2.0 5.0 0.00 0.00 0.00 84 1011.8
20260901003042 81 317 2.0 6.0 0.00 0.00 0.00 83 1011.5
20260901001538 81 277 2.0 7.0 0.00 0.00 0.00 83 1011.2
20260901000039 82 296 3.0 6.0 0.00 0.00 0.00 82 1011.2
20260831234543 82 315 1.0 4.0 0.00 0.00 0.00 81 1011.1
20260831233035 82 277 3.0 6.0 0.00 0.00 0.00 82 1011.1
20260831231535 82 312 3.0 6.0 0.00 0.00 0.00 84 1011.4
20260831230134 82 325 1.0 6.0 0.00 0.00 0.00 84 1011.5
20260831224534 82 327 2.0 7.0 0.00 0.00 0.00 83 1011.2
20260831223030 83 335 3.0 7.0 0.00 0.00 0.00 82 1011.2
20260831221529 82 15 3.0 7.0 0.00 0.00 0.00 84 1011.2
20260831220027 81 332 2.0 6.0 0.00 0.00 0.00 87 1011.0
20260831214527 80 43 1.0 3.0 0.00 0.00 0.00 88 1011.1
20260831213103 79 316 2.0 8.0 0.00 0.00 0.00 87 1011.1
20260831211604 78 301 5.0 8.0 0.00 0.00 0.00 87 1011.0
20260831210052 78 318 5.0 9.0 0.00 0.00 0.00 88 1010.8
20260831204555 77 295 5.0 11.0 0.00 0.00 0.00 88 1010.1
20260831203052 76 317 5.0 18.0 0.00 0.00 0.00 87 1010.9
20260831201548 77 306 9.0 15.0 0.00 0.00 0.00 86 1010.9
20260831200052 79 325 3.0 6.0 0.00 0.00 0.00 80 1012.1
20260831194544 79 6 2.0 8.0 0.00 0.00 0.00 78 1011.7
20260831193044 80 329 5.0 8.0 0.00 0.00 0.00 75 1011.5
20260831191542 81 320 6.0 13.0 0.00 0.00 0.00 72 1011.4
20260831190055 81 248 6.0 11.0 0.00 0.00 0.00 70 1011.4
20260831184539 82 341 5.0 10.0 0.00 0.00 0.00 69 1011.8
20260831183039 83 292 4.0 10.0 0.00 0.00 0.00 67 1011.7
20260831181537 84 335 5.0 14.0 0.00 0.00 0.00 65 1011.5
20260831180043 84 320 5.0 13.0 0.00 0.00 0.00 64 1011.5
20260831174530 83 302 7.0 14.0 0.00 0.00 0.00 65 1011.7
20260831173026 82 336 5.0 14.0 0.00 0.00 0.00 68 1011.8
20260831171522 80 295 9.0 15.0 0.00 0.00 0.00 69 1012.0
20260831170018 81 281 8.0 12.0 0.00 0.00 0.00 69 1012.2
20260831164533 80 331 7.0 17.0 0.00 0.00 0.00 70 1012.3
20260831163012 79 298 9.0 17.0 0.00 0.00 0.00 70 1012.5
20260831161507 78 310 6.0 14.0 0.00 0.00 0.00 74 1012.6
20260831160034 77 304 7.0 15.0 0.00 0.00 0.00 73 1012.8
20260831154534 76 306 8.0 14.0 0.00 0.00 0.00 77 1012.6
20260831153126 75 312 6.0 10.0 0.00 0.00 0.00 80 1012.7
20260831151557 74 299 6.0 12.0 0.00 0.00 0.00 82 1012.7
20260831150050 73 246 5.0 11.0 0.00 0.00 0.00 85 1012.7
20260831144519 72 290 4.0 12.0 0.00 0.00 0.00 86 1012.8
20260831143020 72 262 4.0 17.0 0.00 0.00 0.00 86 1012.8
20260831141542 72 251 3.0 10.0 0.00 0.00 0.00 86 1012.7
20260831140040 71 231 5.0 11.0 0.00 0.00 0.00 87 1012.7
20260831134535 71 301 6.0 12.0 0.00 0.00 0.00 87 1013.0
20260831133031 71 283 6.0 9.0 0.00 0.00 0.00 88 1012.9
20260831131531 70 246 4.0 10.0 0.00 0.00 0.00 88 1012.9
20260831130030 71 252 2.0 6.0 0.00 0.00 0.00 87 1013.3
20260831124527 71 304 4.0 12.0 0.00 0.00 0.00 87 1013.1
20260831123026 70 257 4.0 9.0 0.00 0.00 0.00 87 1012.7
20260831121525 70 253 2.0 7.0 0.00 0.00 0.00 88 1012.7
20260831120035 70 263 1.0 5.0 0.00 0.00 0.00 89 1012.6
20260831114531 70 287 1.0 7.0 0.00 0.00 0.00 89 1012.8
20260831113022 70 254 2.0 7.0 0.00 0.00 0.00 88 1012.7
20260831111522 71 44 0.0 8.0 0.00 0.00 0.00 85 1013.3
20260831110022 72 333 2.0 8.0 0.00 0.00 0.00 81 1013.3
20260831104519 73 37 3.0 8.0 0.00 0.00 0.00 78 1013.0
20260831103018 73 77 2.0 4.0 0.00 0.00 0.00 78 1012.4
20260831101518 73 310 1.0 7.0 0.00 0.00 0.00 78 1012.0
20260831100018 73 308 2.0 6.0 0.00 0.00 0.00 78 1012.0
20260831094512 73 320 2.0 7.0 0.00 0.00 0.00 78 1011.8
20260831093024 74 324 3.0 7.0 0.00 0.00 0.00 78 1012.0
20260831091511 74 316 3.0 7.0 0.00 0.00 0.00 79 1012.0
20260831090012 73 317 2.0 9.0 0.00 0.00 0.00 80 1011.9
20260831084508 73 287 2.0 5.0 0.00 0.00 0.00 82 1012.0
20260831083007 73 239 2.0 9.0 0.00 0.00 0.00 82 1011.9
20260831081506 73 246 2.0 4.0 0.00 0.00 0.00 83 1012.1
20260831080005 73 271 1.0 5.0 0.00 0.00 0.00 84 1012.1
20260831074503 73 254 0.0 3.0 0.00 0.00 0.00 85 1012.3
20260831073002 73 268 1.0 4.0 0.00 0.00 0.00 86 1012.5